Tracking 28790 objects as of 19-Apr-2024
HD Live streaming from Space Station
objects crossing your sky now

GORIZONT 30

Track GORIZONT 30 now!
GORIZONT 30 is classified as:


NORAD ID: 23108
Int'l Code: 1994-030A
Perigee: 35,795.0 km
Apogee: 35,811.3 km
Inclination: 14.4 °
Period: 1,436.6 minutes
Semi major axis: 42174 km
RCS: 12.5892 m2 (large)
Launch date: May 20, 1994
Source: Commonwealth of Independent States (former USSR) (CIS)
Launch site: TYURATAM MISSILE AND SPACE COMPLEX (TTMTR)
Your satellite tracking list
Your tracking list is empty




NASA's NSSDC Master Catalog

Two Line Element Set (TLE):
1 23108U 94030A   24109.89910627 -.00000003  00000-0  00000-0 0  9992
2 23108  14.3797 354.1002 0001935 214.3008 327.6164  1.00238135109549
Source of the keplerian elements: AFSPC